QPF
0.05 0.07 0.10 0.08 0.09 0.11 0.09 0.06 0.10 0.11 0.07 0.08 0.08 0.07 0.09 0.10 0.10 0.10 0.11 0.11 0.12 0.11 0.09 0.10 0.15 0.25 0.16 0.09 0.05 0.07 0.06 0.05 0.05 0.04 0.04 0.06 0.05 0.05 0.05 0.05 0.05 0.05 0.06
0.10 0.08 0.09 0.08 0.09 0.11 0.09 0.07 0.10 0.09 0.08 0.08 0.07 0.08 0.13 0.11 0.08 0.07 0.08 0.09 0.08 0.08 0.12 0.12 0.12 0.13 0.10 0.08 0.06 0.04 0.05 0.05 0.05 0.05 0.06 0.07 0.06 0.05 0.06 0.06 0.05 0.04 0.05
0.10 0.07 0.09 0.09 0.09 0.13 0.17 0.11 0.09 0.09 0.09 0.09 0.09 0.11 0.13 0.09 0.06 0.05 0.06 0.06 0.05 0.07 0.12 0.15 0.09 0.08 0.08 0.08 0.07 0.05 0.05 0.06 0.06 0.07 0.06 0.06 0.07 0.06 0.07 0.07 0.05 0.04 0.04
0.06 0.06 0.07 0.10 0.10 0.16 0.19 0.15 0.13 0.12 0.11 0.12 0.11 0.11 0.11 0.07 0.05 0.05 0.05 0.05 0.06 0.09 0.12 0.16 0.07 0.07 0.08 0.08 0.06 0.06 0.06 0.07 0.08 0.08 0.04 0.03 0.03 0.05 0.06 0.07 0.04 0.05 0.05
0.05 0.07 0.10 0.11 0.12 0.13 0.14 0.14 0.14 0.11 0.11 0.13 0.13 0.13 0.11 0.07 0.05 0.05 0.04 0.05 0.07 0.10 0.11 0.14 0.07 0.07 0.08 0.09 0.07 0.06 0.06 0.07 0.07 0.04 0.02 0.02 0.02 0.04 0.07 0.05 0.05 0.05 0.03
0.09 0.09 0.13 0.14 0.12 0.13 0.13 0.12 0.12 0.10 0.10 0.11 0.11 0.11 0.11 0.08 0.07 0.07 0.05 0.05 0.06 0.09 0.12 0.11 0.08 0.07 0.08 0.10 0.08 0.06 0.06 0.07 0.06 0.03 0.02 0.01 0.02 0.05 0.06 0.05 0.05 0.05 0.04
0.08 0.11 0.18 0.18 0.13 0.11 0.09 0.10 0.10 0.09 0.09 0.08 0.08 0.08 0.10 0.09 0.08 0.08 0.08 0.07 0.07 0.10 0.12 0.10 0.09 0.07 0.07 0.08 0.07 0.06 0.06 0.07 0.05 0.03 0.02 0.01 0.02 0.04 0.04 0.04 0.06 0.05 0.04
0.07 0.09 0.16 0.14 0.08 0.07 0.08 0.08 0.09 0.09 0.07 0.06 0.07 0.09 0.09 0.09 0.09 0.09 0.09 0.09 0.09 0.10 0.10 0.11 0.10 0.06 0.07 0.07 0.07 0.07 0.07 0.05 0.03 0.04 0.03 0.01 0.02 0.04 0.05 0.06 0.06 0.05 0.05
0.06 0.06 0.08 0.10 0.09 0.07 0.08 0.08 0.08 0.08 0.07 0.07 0.07 0.10 0.12 0.12 0.12 0.09 0.08 0.07 0.06 0.06 0.07 0.09 0.11 0.09 0.07 0.07 0.07 0.08 0.07 0.05 0.03 0.03 0.02 0.02 0.03 0.05 0.06 0.08 0.05 0.03 0.03
0.04 0.03 0.04 0.07 0.08 0.08 0.09 0.10 0.10 0.10 0.11 0.10 0.12 0.13 0.14 0.15 0.13 0.10 0.07 0.06 0.06 0.05 0.06 0.08 0.10 0.10 0.08 0.09 0.08 0.08 0.07 0.06 0.04 0.04 0.02 0.03 0.05 0.06 0.07 0.06 0.04 0.02 0.03
0.02 0.01 0.03 0.06 0.08 0.08 0.08 0.08 0.09 0.11 0.11 0.12 0.12 0.12 0.11 0.09 0.10 0.10 0.09 0.08 0.08 0.08 0.08 0.10 0.11 0.11 0.11 0.10 0.11 0.11 0.08 0.04 0.05 0.05 0.05 0.06 0.07 0.07 0.07 0.05 0.03 0.03 0.03
0.01 0.01 0.02 0.06 0.08 0.09 0.08 0.07 0.07 0.07 0.07 0.08 0.08 0.06 0.06 0.06 0.07 0.09 0.10 0.11 0.10 0.10 0.11 0.13 0.13 0.13 0.11 0.12 0.16 0.15 0.10 0.08 0.04 0.03 0.05 0.08 0.09 0.09 0.07 0.06 0.04 0.03 0.03
0.00 0.01 0.01 0.06 0.07 0.08 0.08 0.07 0.07 0.08 0.07 0.07 0.06 0.05 0.05 0.06 0.07 0.08 0.07 0.07 0.08 0.09 0.09 0.10 0.11 0.10 0.09 0.10 0.14 0.13 0.12 0.11 0.05 0.03 0.05 0.08 0.11 0.11 0.08 0.07 0.05 0.04 0.04
0.00 0.00 0.01 0.03 0.05 0.06 0.08 0.09 0.08 0.08 0.06 0.05 0.06 0.05 0.05 0.07 0.07 0.06 0.06 0.06 0.05 0.06 0.06 0.06 0.07 0.08 0.07 0.08 0.11 0.13 0.12 0.08 0.05 0.04 0.07 0.09 0.11 0.10 0.09 0.08 0.07 0.05 0.04
0.00 0.01 0.01 0.02 0.03 0.06 0.06 0.05 0.05 0.07 0.07 0.07 0.06 0.06 0.06 0.07 0.07 0.07 0.07 0.06 0.06 0.07 0.06 0.05 0.06 0.07 0.06 0.06 0.09 0.09 0.08 0.06 0.05 0.06 0.09 0.11 0.09 0.07 0.07 0.07 0.06 0.05 0.05
0.00 0.01 0.01 0.02 0.03 0.05 0.05 0.03 0.02 0.05 0.05 0.05 0.07 0.09 0.07 0.06 0.08 0.09 0.08 0.07 0.09 0.13 0.14 0.09 0.08 0.06 0.06 0.06 0.06 0.06 0.05 0.05 0.05 0.07 0.08 0.10 0.08 0.06 0.06 0.06 0.05 0.05 0.06
0.01 0.01 0.02 0.02 0.04 0.06 0.05 0.02 0.01 0.04 0.03 0.04 0.06 0.09 0.08 0.07 0.09 0.11 0.11 0.11 0.13 0.20 0.21 0.16 0.12 0.09 0.07 0.06 0.06 0.06 0.05 0.06 0.06 0.07 0.07 0.07 0.05 0.05 0.05 0.06 0.06 0.06 0.06
0.02 0.03 0.03 0.03 0.04 0.04 0.03 0.02 0.02 0.03 0.03 0.05 0.07 0.08 0.07 0.06 0.06 0.09 0.11 0.13 0.15 0.19 0.20 0.16 0.12 0.10 0.09 0.07 0.07 0.06 0.04 0.06 0.07 0.08 0.09 0.08 0.06 0.05 0.06 0.07 0.07 0.06 0.06
0.02 0.03 0.03 0.02 0.02 0.02 0.03 0.03 0.03 0.03 0.05 0.07 0.08 0.07 0.05 0.05 0.06 0.05 0.07 0.09 0.12 0.15 0.16 0.13 0.10 0.08 0.08 0.08 0.09 0.09 0.08 0.10 0.08 0.10 0.11 0.08 0.08 0.08 0.08 0.09 0.09 0.07 0.06
0.02 0.01 0.01 0.02 0.02 0.02 0.03 0.03 0.04 0.05 0.08 0.11 0.08 0.06 0.05 0.05 0.06 0.05 0.05 0.05 0.07 0.09 0.09 0.07 0.06 0.06 0.07 0.07 0.08 0.10 0.12 0.13 0.11 0.10 0.12 0.12 0.13 0.12 0.10 0.10 0.09 0.06 0.05
0.02 0.01 0.00 0.01 0.02 0.02 0.01 0.02 0.04 0.07 0.11 0.12 0.09 0.05 0.04 0.05 0.04 0.04 0.04 0.04 0.04 0.04 0.04 0.04 0.05 0.06 0.06 0.06 0.07 0.08 0.11 0.12 0.13 0.10 0.10 0.13 0.14 0.12 0.10 0.10 0.08 0.06 0.05
0.01 0.01 0.01 0.01 0.02 0.01 0.01 0.01 0.03 0.09 0.11 0.10 0.06 0.04 0.04 0.04 0.04 0.04 0.04 0.03 0.03 0.03 0.03 0.03 0.04 0.04 0.04 0.05 0.06 0.07 0.11 0.13 0.15 0.12 0.09 0.09 0.12 0.11 0.10 0.09 0.08 0.08 0.07
0.01 0.01 0.01 0.01 0.01 0.01 0.01 0.01 0.01 0.05 0.06 0.03 0.02 0.03 0.04 0.05 0.04 0.04 0.04 0.05 0.05 0.04 0.04 0.04 0.05 0.04 0.04 0.05 0.04 0.04 0.06 0.08 0.10 0.11 0.09 0.09 0.10 0.11 0.10 0.08 0.08 0.09 0.09
0.01 0.01 0.01 0.01 0.01 0.02 0.02 0.02 0.01 0.01 0.01 0.01 0.01 0.02 0.03 0.04 0.03 0.03 0.04 0.04 0.04 0.05 0.05 0.06 0.07 0.06 0.05 0.05 0.05 0.04 0.04 0.05 0.06 0.07 0.07 0.08 0.09 0.08 0.08 0.07 0.06 0.07 0.06
0.01 0.01 0.01 0.01 0.01 0.02 0.02 0.02 0.01 0.01 0.00 0.00 0.01 0.01 0.02 0.02 0.02 0.02 0.02 0.03 0.03 0.04 0.06 0.06 0.06 0.05 0.04 0.04 0.04 0.05 0.05 0.04 0.04 0.04 0.05 0.06 0.07 0.07 0.06 0.06 0.05 0.05 0.04
0.01 0.01 0.02 0.02 0.01 0.02 0.02 0.02 0.01 0.01 0.00 0.00 0.01 0.01 0.01 0.01 0.01 0.01 0.01 0.02 0.03 0.03 0.04 0.07 0.08 0.05 0.03 0.02 0.02 0.03 0.03 0.04 0.05 0.04 0.04 0.05 0.06 0.06 0.05 0.04 0.03 0.03 0.03
MSLP
1010.93 1010.31 1009.93 1009.78 1009.79 1009.87 1009.90 1009.80 1009.56 1009.18 1008.74 1008.33 1008.02 1007.87 1007.91 1008.09 1008.38 1008.72 1009.05 1009.34 1009.59 1009.84 1010.10 1010.42 1010.81 1011.26 1011.74 1012.23 1012.66 1013.03 1013.31 1013.52 1013.67 1013.81 1013.96 1014.15 1014.39 1014.65 1014.94 1015.23 1015.51 1015.76 1015.99
1010.95 1010.41 1010.10 1010.03 1010.10 1010.24 1010.34 1010.31 1010.13 1009.83 1009.46 1009.11 1008.85 1008.75 1008.80 1008.99 1009.27 1009.57 1009.85 1010.10 1010.32 1010.53 1010.77 1011.07 1011.44 1011.87 1012.32 1012.75 1013.13 1013.42 1013.64 1013.79 1013.91 1014.02 1014.17 1014.38 1014.63 1014.91 1015.22 1015.52 1015.80 1016.05 1016.27
1010.93 1010.49 1010.26 1010.25 1010.39 1010.58 1010.74 1010.79 1010.70 1010.49 1010.22 1009.96 1009.77 1009.71 1009.77 1009.94 1010.17 1010.41 1010.63 1010.81 1010.98 1011.16 1011.37 1011.66 1012.00 1012.40 1012.80 1013.18 1013.49 1013.72 1013.88 1013.99 1014.09 1014.21 1014.38 1014.60 1014.88 1015.18 1015.50 1015.80 1016.07 1016.32 1016.54
1010.91 1010.57 1010.43 1010.48 1010.66 1010.90 1011.11 1011.23 1011.23 1011.12 1010.96 1010.79 1010.68 1010.66 1010.73 1010.87 1011.04 1011.21 1011.35 1011.47 1011.59 1011.73 1011.92 1012.18 1012.51 1012.86 1013.22 1013.54 1013.78 1013.96 1014.08 1014.17 1014.26 1014.40 1014.59 1014.85 1015.15 1015.46 1015.77 1016.06 1016.31 1016.54 1016.76
1010.94 1010.71 1010.65 1010.74 1010.95 1011.22 1011.45 1011.62 1011.69 1011.67 1011.60 1011.53 1011.50 1011.52 1011.59 1011.70 1011.82 1011.92 1012.00 1012.06 1012.14 1012.25 1012.43 1012.67 1012.97 1013.29 1013.59 1013.85 1014.04 1014.17 1014.26 1014.34 1014.45 1014.62 1014.85 1015.13 1015.43 1015.74 1016.03 1016.29 1016.51 1016.72 1016.93
1011.09 1010.95 1010.95 1011.07 1011.28 1011.54 1011.77 1011.96 1012.07 1012.11 1012.12 1012.13 1012.15 1012.21 1012.29 1012.38 1012.46 1012.51 1012.54 1012.57 1012.62 1012.73 1012.90 1013.13 1013.40 1013.68 1013.94 1014.14 1014.29 1014.38 1014.45 1014.54 1014.67 1014.87 1015.13 1015.43 1015.74 1016.03 1016.28 1016.49 1016.67 1016.84 1017.03
1011.37 1011.30 1011.33 1011.46 1011.65 1011.87 1012.08 1012.25 1012.37 1012.45 1012.50 1012.56 1012.64 1012.73 1012.82 1012.91 1012.96 1012.99 1013.00 1013.02 1013.06 1013.16 1013.33 1013.56 1013.81 1014.06 1014.27 1014.43 1014.53 1014.60 1014.66 1014.76 1014.92 1015.14 1015.42 1015.73 1016.03 1016.29 1016.50 1016.65 1016.77 1016.91 1017.07
1011.76 1011.73 1011.78 1011.89 1012.05 1012.22 1012.38 1012.52 1012.62 1012.71 1012.79 1012.88 1012.99 1013.11 1013.22 1013.31 1013.36 1013.38 1013.39 1013.41 1013.46 1013.57 1013.74 1013.96 1014.20 1014.42 1014.59 1014.71 1014.78 1014.82 1014.88 1014.98 1015.15 1015.40 1015.70 1016.01 1016.29 1016.51 1016.67 1016.77 1016.84 1016.93 1017.07
1012.19 1012.19 1012.24 1012.34 1012.46 1012.58 1012.69 1012.78 1012.86 1012.94 1013.03 1013.14 1013.27 1013.42 1013.54 1013.64 1013.71 1013.73 1013.74 1013.77 1013.84 1013.96 1014.13 1014.34 1014.55 1014.74 1014.88 1014.96 1015.00 1015.02 1015.06 1015.17 1015.35 1015.60 1015.90 1016.19 1016.46 1016.65 1016.77 1016.83 1016.86 1016.92 1017.04
1012.59 1012.61 1012.67 1012.75 1012.85 1012.94 1013.01 1013.07 1013.12 1013.19 1013.28 1013.41 1013.56 1013.71 1013.86 1013.97 1014.04 1014.08 1014.10 1014.13 1014.20 1014.32 1014.49 1014.68 1014.87 1015.02 1015.12 1015.17 1015.17 1015.17 1015.19 1015.28 1015.45 1015.69 1015.98 1016.26 1016.51 1016.68 1016.78 1016.82 1016.84 1016.89 1016.99
1012.87 1012.92 1013.00 1013.09 1013.19 1013.27 1013.33 1013.37 1013.42 1013.48 1013.57 1013.71 1013.86 1014.03 1014.18 1014.30 1014.38 1014.43 1014.45 1014.48 1014.55 1014.66 1014.80 1014.97 1015.12 1015.24 1015.31 1015.31 1015.28 1015.25 1015.24 1015.30 1015.44 1015.65 1015.91 1016.18 1016.41 1016.58 1016.68 1016.74 1016.77 1016.83 1016.94
1013.00 1013.08 1013.20 1013.33 1013.46 1013.55 1013.62 1013.68 1013.73 1013.79 1013.89 1014.03 1014.19 1014.36 1014.52 1014.64 1014.72 1014.76 1014.78 1014.80 1014.85 1014.94 1015.05 1015.19 1015.31 1015.39 1015.42 1015.39 1015.33 1015.26 1015.21 1015.22 1015.31 1015.48 1015.70 1015.93 1016.15 1016.34 1016.46 1016.55 1016.62 1016.72 1016.87
1012.98 1013.11 1013.28 1013.47 1013.63 1013.77 1013.87 1013.95 1014.01 1014.09 1014.19 1014.33 1014.49 1014.65 1014.80 1014.92 1014.99 1015.03 1015.04 1015.05 1015.08 1015.14 1015.23 1015.33 1015.42 1015.47 1015.47 1015.41 1015.31 1015.20 1015.10 1015.06 1015.09 1015.19 1015.35 1015.55 1015.76 1015.95 1016.12 1016.26 1016.39 1016.54 1016.73
1012.84 1013.03 1013.27 1013.50 1013.72 1013.91 1014.05 1014.15 1014.24 1014.33 1014.43 1014.55 1014.69 1014.84 1014.97 1015.08 1015.15 1015.18 1015.19 1015.19 1015.21 1015.25 1015.31 1015.38 1015.44 1015.47 1015.45 1015.37 1015.24 1015.10 1014.95 1014.85 1014.80 1014.83 1014.93 1015.08 1015.27 1015.47 1015.66 1015.86 1016.06 1016.27 1016.51
1012.66 1012.91 1013.19 1013.48 1013.74 1013.96 1014.14 1014.27 1014.37 1014.45 1014.54 1014.64 1014.76 1014.88 1014.99 1015.08 1015.14 1015.17 1015.18 1015.19 1015.20 1015.24 1015.28 1015.34 1015.39 1015.41 1015.38 1015.29 1015.15 1014.98 1014.80 1014.63 1014.52 1014.47 1014.49 1014.58 1014.73 1014.92 1015.14 1015.37 1015.62 1015.89 1016.16
1012.52 1012.80 1013.11 1013.42 1013.71 1013.95 1014.14 1014.29 1014.39 1014.46 1014.52 1014.59 1014.66 1014.74 1014.82 1014.90 1014.96 1015.00 1015.03 1015.05 1015.08 1015.12 1015.17 1015.22 1015.27 1015.29 1015.27 1015.18 1015.05 1014.87 1014.66 1014.46 1014.28 1014.15 1014.10 1014.12 1014.22 1014.38 1014.59 1014.85 1015.13 1015.42 1015.71
1012.47 1012.75 1013.05 1013.35 1013.64 1013.89 1014.08 1014.23 1014.32 1014.37 1014.40 1014.42 1014.44 1014.48 1014.53 1014.58 1014.64 1014.70 1014.76 1014.81 1014.86 1014.92 1014.99 1015.06 1015.11 1015.14 1015.13 1015.07 1014.96 1014.79 1014.58 1014.35 1014.13 1013.95 1013.83 1013.78 1013.81 1013.93 1014.11 1014.35 1014.62 1014.91 1015.20
1012.50 1012.76 1013.02 1013.30 1013.56 1013.80 1013.99 1014.13 1014.22 1014.25 1014.24 1014.21 1014.18 1014.17 1014.18 1014.22 1014.28 1014.35 1014.44 1014.53 1014.62 1014.71 1014.79 1014.87 1014.94 1014.99 1015.00 1014.98 1014.90 1014.76 1014.57 1014.35 1014.12 1013.90 1013.72 1013.61 1013.58 1013.63 1013.76 1013.96 1014.19 1014.45 1014.71
1012.58 1012.79 1013.01 1013.23 1013.47 1013.69 1013.89 1014.03 1014.12 1014.14 1014.11 1014.04 1013.97 1013.91 1013.88 1013.89 1013.95 1014.04 1014.16 1014.29 1014.41 1014.52 1014.62 1014.71 1014.79 1014.86 1014.90 1014.91 1014.87 1014.78 1014.65 1014.46 1014.24 1014.01 1013.81 1013.65 1013.56 1013.55 1013.61 1013.74 1013.92 1014.11 1014.31
1012.64 1012.80 1012.96 1013.15 1013.36 1013.59 1013.80 1013.97 1014.08 1014.11 1014.07 1013.98 1013.87 1013.77 1013.70 1013.70 1013.75 1013.85 1013.99 1014.14 1014.29 1014.42 1014.53 1014.62 1014.71 1014.78 1014.84 1014.88 1014.90 1014.88 1014.81 1014.68 1014.51 1014.30 1014.09 1013.91 1013.77 1013.70 1013.69 1013.75 1013.85 1013.98 1014.10
1012.61 1012.72 1012.85 1013.01 1013.22 1013.47 1013.72 1013.94 1014.10 1014.17 1014.15 1014.06 1013.93 1013.80 1013.71 1013.67 1013.72 1013.82 1013.97 1014.14 1014.30 1014.44 1014.55 1014.64 1014.71 1014.78 1014.86 1014.93 1015.00 1015.05 1015.05 1015.00 1014.89 1014.73 1014.55 1014.36 1014.20 1014.08 1014.01 1014.00 1014.03 1014.07 1014.12
1012.44 1012.53 1012.64 1012.80 1013.03 1013.32 1013.64 1013.94 1014.17 1014.30 1014.33 1014.26 1014.13 1013.99 1013.87 1013.83 1013.86 1013.96 1014.11 1014.29 1014.45 1014.59 1014.69 1014.77 1014.82 1014.89 1014.97 1015.07 1015.18 1015.29 1015.37 1015.40 1015.37 1015.28 1015.13 1014.96 1014.79 1014.64 1014.53 1014.46 1014.42 1014.40 1014.38
1012.11 1012.22 1012.34 1012.52 1012.79 1013.15 1013.54 1013.93 1014.25 1014.46 1014.55 1014.52 1014.42 1014.28 1014.16 1014.11 1014.13 1014.23 1014.39 1014.56 1014.73 1014.86 1014.96 1015.01 1015.05 1015.10 1015.18 1015.29 1015.44 1015.60 1015.75 1015.86 1015.91 1015.88 1015.78 1015.64 1015.48 1015.32 1015.18 1015.07 1014.98 1014.91 1014.83
1011.68 1011.82 1011.97 1012.19 1012.51 1012.93 1013.40 1013.87 1014.29 1014.59 1014.75 1014.78 1014.71 1014.60 1014.49 1014.44 1014.46 1014.57 1014.73 1014.92 1015.09 1015.23 1015.31 1015.35 1015.38 1015.41 1015.48 1015.61 1015.78 1015.98 1016.18 1016.34 1016.46 1016.49 1016.44 1016.33 1016.19 1016.03 1015.87 1015.74 1015.62 1015.52 1015.40
1011.21 1011.40 1011.59 1011.85 1012.21 1012.67 1013.21 1013.75 1014.25 1014.63 1014.87 1014.96 1014.94 1014.86 1014.79 1014.75 1014.80 1014.92 1015.10 1015.30 1015.49 1015.63 1015.72 1015.76 1015.78 1015.80 1015.86 1015.98 1016.16 1016.38 1016.61 1016.82 1016.98 1017.06 1017.05 1016.97 1016.84 1016.69 1016.53 1016.39 1016.25 1016.13 1015.99
1010.80 1011.04 1011.26 1011.54 1011.92 1012.41 1012.98 1013.57 1014.12 1014.57 1014.87 1015.03 1015.07 1015.04 1015.00 1015.00 1015.07 1015.22 1015.43 1015.66 1015.87 1016.04 1016.15 1016.19 1016.21 1016.23 1016.29 1016.40 1016.58 1016.80 1017.05 1017.28 1017.46 1017.56 1017.58 1017.53 1017.41 1017.26 1017.10 1016.95 1016.81 1016.66 1016.51
Thickness
5783 5787 5788 5787 5787 5787 5787 5786 5785 5784 5784 5784 5783 5782 5782 5781 5780 5780 5779 5778 5777 5775 5774 5774 5772 5771 5769 5768 5767 5765 5763 5762 5760 5759 5758 5757 5756 5755 5754 5752 5751 5750 5749
5786 5787 5787 5787 5787 5786 5785 5784 5783 5783 5783 5782 5781 5780 5780 5780 5779 5779 5779 5777 5776 5774 5773 5772 5771 5770 5768 5767 5765 5764 5762 5761 5759 5758 5757 5756 5755 5753 5752 5751 5750 5749 5748
5786 5785 5785 5786 5786 5785 5784 5782 5781 5781 5781 5780 5779 5778 5778 5778 5778 5778 5777 5776 5775 5774 5772 5771 5770 5769 5767 5766 5764 5763 5761 5760 5759 5758 5756 5755 5754 5752 5751 5750 5749 5747 5746
5784 5783 5783 5783 5783 5782 5781 5780 5779 5779 5778 5778 5777 5776 5776 5776 5777 5777 5776 5775 5774 5773 5772 5770 5769 5768 5766 5765 5764 5762 5760 5759 5758 5757 5755 5754 5753 5752 5750 5749 5747 5746 5745
5782 5781 5780 5780 5780 5779 5779 5778 5777 5776 5776 5775 5775 5775 5774 5774 5775 5775 5775 5774 5773 5772 5771 5770 5768 5767 5766 5765 5763 5762 5760 5759 5757 5756 5754 5753 5752 5751 5749 5748 5746 5745 5743
5779 5778 5778 5778 5777 5777 5776 5775 5774 5774 5773 5773 5773 5773 5773 5773 5773 5773 5774 5774 5773 5772 5770 5769 5767 5766 5765 5764 5763 5761 5759 5758 5756 5754 5753 5752 5751 5749 5748 5747 5745 5743 5742
5776 5776 5775 5775 5774 5774 5774 5773 5773 5772 5771 5772 5772 5772 5772 5771 5771 5772 5772 5772 5771 5770 5769 5768 5767 5766 5765 5764 5762 5760 5758 5757 5755 5753 5752 5751 5750 5749 5747 5746 5744 5742 5741
5774 5773 5773 5773 5772 5772 5772 5772 5771 5771 5770 5770 5770 5770 5770 5769 5770 5770 5770 5770 5770 5769 5768 5767 5766 5766 5764 5763 5761 5759 5758 5757 5754 5753 5751 5750 5749 5748 5747 5745 5744 5742 5740
5772 5771 5770 5770 5770 5770 5770 5770 5770 5770 5769 5769 5768 5768 5768 5767 5768 5768 5768 5768 5768 5768 5767 5766 5765 5765 5763 5762 5760 5759 5758 5756 5754 5752 5751 5750 5749 5748 5746 5744 5743 5741 5740
5769 5768 5768 5768 5768 5768 5768 5768 5768 5768 5767 5766 5766 5766 5765 5765 5765 5766 5766 5766 5767 5766 5765 5765 5765 5764 5763 5761 5760 5759 5757 5755 5754 5752 5750 5749 5748 5747 5746 5744 5742 5740 5739
5765 5765 5766 5766 5766 5767 5767 5767 5766 5766 5765 5764 5763 5763 5763 5763 5763 5764 5765 5765 5765 5765 5764 5764 5763 5762 5761 5760 5759 5758 5756 5755 5753 5752 5750 5749 5748 5746 5745 5744 5742 5740 5738
5761 5763 5764 5764 5764 5765 5765 5765 5765 5764 5762 5761 5760 5760 5760 5760 5761 5761 5762 5763 5763 5763 5763 5762 5761 5761 5760 5759 5758 5757 5756 5754 5753 5752 5751 5749 5748 5746 5744 5743 5741 5739 5738
5762 5762 5763 5763 5763 5763 5763 5763 5763 5761 5760 5759 5758 5758 5757 5758 5758 5758 5759 5760 5760 5760 5760 5760 5759 5759 5758 5758 5757 5756 5754 5753 5752 5751 5750 5749 5748 5746 5744 5742 5740 5739 5737
5762 5762 5762 5762 5762 5761 5761 5761 5760 5759 5758 5757 5756 5756 5755 5755 5755 5755 5756 5757 5758 5758 5757 5758 5757 5757 5757 5756 5756 5755 5754 5753 5752 5751 5750 5749 5747 5745 5743 5742 5740 5738 5737
5762 5762 5762 5762 5761 5760 5760 5759 5758 5757 5757 5756 5755 5755 5754 5754 5753 5753 5755 5755 5756 5756 5755 5756 5756 5756 5755 5754 5754 5754 5753 5752 5751 5750 5749 5748 5746 5745 5743 5741 5740 5738 5736
5763 5763 5763 5762 5761 5760 5759 5758 5757 5756 5756 5755 5755 5754 5753 5753 5752 5753 5753 5754 5754 5754 5754 5754 5754 5754 5753 5753 5752 5752 5751 5751 5750 5750 5749 5747 5746 5744 5742 5741 5739 5738 5736
5766 5765 5764 5764 5763 5761 5760 5759 5758 5757 5756 5755 5755 5754 5753 5753 5753 5753 5753 5753 5753 5753 5753 5753 5753 5753 5752 5751 5750 5750 5750 5749 5749 5749 5748 5747 5745 5744 5742 5741 5739 5737 5736
5768 5766 5765 5766 5763 5762 5760 5759 5758 5757 5756 5755 5755 5754 5754 5754 5753 5752 5752 5752 5752 5752 5752 5752 5752 5751 5749 5748 5748 5748 5748 5748 5748 5748 5747 5746 5744 5743 5742 5740 5738 5737 5735
5771 5768 5767 5766 5764 5762 5761 5760 5759 5757 5756 5756 5756 5755 5755 5754 5753 5752 5752 5752 5752 5751 5751 5751 5750 5749 5747 5746 5746 5746 5746 5745 5746 5746 5746 5745 5744 5742 5740 5739 5737 5736 5734
5773 5770 5768 5767 5765 5763 5761 5759 5758 5757 5756 5756 5755 5755 5755 5754 5753 5752 5751 5751 5751 5750 5749 5749 5748 5747 5745 5744 5744 5743 5743 5744 5744 5744 5743 5743 5742 5740 5739 5738 5736 5735 5733
5773 5770 5768 5766 5765 5763 5760 5758 5756 5755 5755 5755 5755 5755 5755 5754 5754 5752 5751 5750 5750 5749 5748 5747 5746 5743 5741 5741 5739 5737 5739 5741 5741 5741 5741 5740 5739 5739 5737 5736 5735 5733 5732
5774 5772 5769 5768 5766 5765 5763 5761 5759 5757 5756 5756 5755 5755 5755 5754 5754 5753 5752 5750 5749 5748 5746 5745 5744 5741 5740 5739 5736 5732 5730 5731 5735 5738 5738 5738 5737 5736 5736 5735 5733 5732 5731
5775 5773 5772 5769 5767 5766 5765 5762 5760 5757 5755 5754 5753 5753 5754 5754 5753 5753 5752 5751 5749 5748 5745 5744 5743 5740 5737 5737 5737 5733 5727 5724 5728 5733 5735 5735 5735 5734 5734 5733 5732 5731 5730
5778 5777 5774 5771 5768 5766 5765 5762 5759 5755 5752 5753 5753 5753 5754 5754 5753 5753 5752 5750 5749 5747 5745 5744 5743 5741 5738 5735 5734 5734 5733 5731 5725 5724 5729 5732 5732 5732 5732 5732 5731 5730 5729
5782 5779 5776 5772 5769 5767 5765 5763 5760 5757 5756 5755 5754 5753 5753 5753 5753 5752 5751 5749 5748 5747 5745 5743 5742 5741 5739 5736 5734 5732 5730 5729 5728 5723 5722 5725 5728 5730 5730 5730 5729 5729 5728
5781 5779 5776 5772 5769 5767 5766 5764 5761 5758 5756 5754 5753 5752 5752 5752 5751 5751 5750 5749 5747 5746 5745 5743 5742 5741 5739 5737 5735 5733 5730 5728 5726 5724 5721 5722 5723 5727 5729 5729 5728 5727 5726